| time (UTC) | temp C | wind direction | speed KPH | gust KPH | rain 1hr cm | rain 24hr cm | rain mn cm | humidity % | barometer mb |
| 20260503232545 | 24 | 0 | 3.2 | 9.7 | 0.03 | 0.10 | 0.08 | 43 | 1018.0 |
| 20260503232045 | 24 | 0 | 0.0 | 9.7 | 0.03 | 0.10 | 0.08 | 45 | 1017.9 |
| 20260503231600 | 25 | 27 | 1.6 | 6.4 | 0.03 | 0.10 | 0.08 | 42 | 1018.0 |
| 20260503231045 | 25 | 26 | 1.6 | 8.0 | 0.03 | 0.10 | 0.08 | 42 | 1018.1 |
| 20260503230548 | 25 | 19 | 0.0 | 8.0 | 0.03 | 0.10 | 0.08 | 42 | 1017.9 |
| 20260503230051 | 25 | 19 | 1.6 | 8.0 | 0.03 | 0.10 | 0.08 | 41 | 1017.8 |
| 20260503225546 | 25 | 0 | 1.6 | 6.4 | 0.03 | 0.13 | 0.08 | 42 | 1017.9 |
| 20260503225049 | 25 | 19 | 0.0 | 6.4 | 0.03 | 0.13 | 0.08 | 43 | 1018.0 |
| 20260503224601 | 25 | 28 | 0.0 | 6.4 | 0.03 | 0.13 | 0.08 | 45 | 1018.1 |
| 20260503224047 | 25 | 28 | 1.6 | 6.4 | 0.03 | 0.13 | 0.08 | 42 | 1018.0 |
| 20260503223548 | 25 | 26 | 0.0 | 9.7 | 0.03 | 0.13 | 0.08 | 44 | 1018.2 |
| 20260503223054 | 25 | 41 | 0.0 | 9.7 | 0.03 | 0.13 | 0.08 | 42 | 1018.4 |
| 20260503222545 | 25 | 0 | 0.0 | 6.4 | 0.00 | 0.10 | 0.05 | 44 | 1018.3 |
| 20260503222045 | 25 | 35 | 0.0 | 6.4 | 0.00 | 0.10 | 0.05 | 43 | 1018.5 |
| 20260503221556 | 26 | 0 | 1.6 | 8.0 | 0.00 | 0.10 | 0.05 | 42 | 1018.4 |
| 20260503221049 | 26 | 0 | 1.6 | 9.7 | 0.00 | 0.10 | 0.05 | 42 | 1018.5 |
| 20260503220546 | 26 | 0 | 1.6 | 9.7 | 0.00 | 0.10 | 0.05 | 43 | 1018.6 |
| 20260503220054 | 26 | 20 | 0.0 | 9.7 | 0.00 | 0.10 | 0.05 | 46 | 1018.7 |
| 20260503215546 | 26 | 29 | 0.0 | 6.4 | 0.00 | 0.10 | 0.05 | 43 | 1018.7 |
| 20260503215045 | 26 | 0 | 1.6 | 8.0 | 0.00 | 0.10 | 0.05 | 44 | 1018.8 |
| 20260503214557 | 25 | 41 | 1.6 | 8.0 | 0.00 | 0.10 | 0.05 | 44 | 1018.8 |
| 20260503214050 | 25 | 0 | 1.6 | 12.9 | 0.00 | 0.10 | 0.05 | 42 | 1018.8 |
| 20260503213547 | 25 | 14 | 0.0 | 12.9 | 0.00 | 0.10 | 0.05 | 43 | 1018.9 |
| 20260503213125 | 26 | 4 | 0.0 | 12.9 | 0.00 | 0.10 | 0.05 | 40 | 1019.1 |
| 20260503212547 | 26 | 0 | 3.2 | 12.9 | 0.00 | 0.10 | 0.05 | 40 | 1019.2 |
| 20260503212050 | 26 | 35 | 1.6 | 9.7 | 0.00 | 0.10 | 0.05 | 41 | 1019.2 |
| 20260503211619 | 26 | 30 | 0.0 | 9.7 | 0.00 | 0.10 | 0.05 | 39 | 1019.2 |
| 20260503211047 | 26 | 26 | 1.6 | 9.7 | 0.00 | 0.10 | 0.05 | 41 | 1019.5 |
| 20260503210546 | 26 | 27 | 1.6 | 16.1 | 0.00 | 0.10 | 0.05 | 39 | 1019.4 |
| 20260503210047 | 26 | 22 | 4.8 | 16.1 | 0.00 | 0.10 | 0.05 | 40 | 1019.7 |
| 20260503205546 | 26 | 29 | 1.6 | 8.0 | 0.00 | 0.10 | 0.05 | 40 | 1019.8 |
| 20260503205047 | 26 | 33 | 1.6 | 12.9 | 0.00 | 0.10 | 0.05 | 40 | 1019.8 |
| 20260503204603 | 26 | 82 | 1.6 | 12.9 | 0.00 | 0.10 | 0.05 | 42 | 1019.8 |
| 20260503204046 | 26 | 0 | 0.0 | 8.0 | 0.00 | 0.10 | 0.05 | 43 | 1019.8 |
| 20260503203545 | 26 | 28 | 1.6 | 8.0 | 0.00 | 0.10 | 0.05 | 39 | 1020.0 |
| 20260503203049 | 26 | 25 | 0.0 | 14.5 | 0.00 | 0.10 | 0.05 | 41 | 1020.1 |
| 20260503202547 | 25 | 30 | 3.2 | 14.5 | 0.00 | 0.10 | 0.05 | 41 | 1020.4 |
| 20260503202048 | 25 | 33 | 1.6 | 6.4 | 0.00 | 0.10 | 0.05 | 41 | 1020.4 |
| 20260503201551 | 26 | 0 | 1.6 | 9.7 | 0.00 | 0.10 | 0.05 | 40 | 1020.5 |
| 20260503201046 | 26 | 0 | 3.2 | 16.1 | 0.00 | 0.10 | 0.05 | 39 | 1020.5 |
| 20260503200546 | 26 | 24 | 4.8 | 16.1 | 0.00 | 0.10 | 0.05 | 39 | 1020.5 |
| 20260503200052 | 26 | 46 | 3.2 | 9.7 | 0.00 | 0.10 | 0.05 | 39 | 1020.6 |
| 20260503195546 | 26 | 24 | 1.6 | 8.0 | 0.00 | 0.13 | 0.05 | 40 | 1020.8 |
| 20260503195046 | 26 | 0 | 0.0 | 8.0 | 0.00 | 0.13 | 0.05 | 39 | 1020.9 |
| 20260503194553 | 26 | 10 | 1.6 | 6.4 | 0.00 | 0.13 | 0.05 | 42 | 1020.9 |
| 20260503194046 | 26 | 0 | 1.6 | 8.0 | 0.00 | 0.13 | 0.05 | 40 | 1021.0 |
| 20260503193546 | 26 | 9 | 1.6 | 8.0 | 0.00 | 0.13 | 0.05 | 42 | 1021.0 |
| 20260503193053 | 26 | 37 | 1.6 | 8.0 | 0.00 | 0.13 | 0.05 | 43 | 1021.1 |
| 20260503192546 | 26 | 14 | 1.6 | 8.0 | 0.00 | 0.13 | 0.05 | 42 | 1021.3 |
| 20260503192045 | 25 | 0 | 1.6 | 6.4 | 0.00 | 0.13 | 0.05 | 44 | 1021.2 |
| 20260503191603 | 25 | 0 | 0.0 | 9.7 | 0.00 | 0.13 | 0.05 | 42 | 1021.2 |
| 20260503191045 | 25 | 20 | 0.0 | 11.3 | 0.00 | 0.13 | 0.05 | 42 | 1021.4 |
| 20260503190546 | 25 | 0 | 1.6 | 11.3 | 0.00 | 0.13 | 0.05 | 40 | 1021.5 |
| 20260503190051 | 25 | 32 | 1.6 | 11.3 | 0.00 | 0.13 | 0.05 | 43 | 1021.6 |
| 20260503185545 | 25 | 0 | 0.0 | 11.3 | 0.00 | 0.13 | 0.05 | 44 | 1021.5 |
| 20260503185045 | 25 | 15 | 1.6 | 9.7 | 0.00 | 0.13 | 0.05 | 43 | 1021.6 |
| 20260503184611 | 25 | 0 | 3.2 | 9.7 | 0.00 | 0.13 | 0.05 | 43 | 1021.8 |
| 20260503184047 | 25 | 72 | 1.6 | 8.0 | 0.00 | 0.13 | 0.05 | 45 | 1021.7 |
| 20260503183545 | 25 | 0 | 1.6 | 8.0 | 0.00 | 0.13 | 0.05 | 41 | 1021.8 |
| 20260503183105 | 25 | 36 | 1.6 | 8.0 | 0.00 | 0.13 | 0.05 | 42 | 1022.1 |
| 20260503182544 | 25 | 0 | 1.6 | 6.4 | 0.00 | 0.13 | 0.05 | 44 | 1022.0 |
| 20260503182124 | 25 | 16 | 1.6 | 8.0 | 0.00 | 0.13 | 0.05 | 42 | 1022.2 |
| 20260503181553 | 25 | 17 | 1.6 | 11.3 | 0.00 | 0.13 | 0.05 | 45 | 1022.3 |
| 20260503181045 | 25 | 0 | 1.6 | 11.3 | 0.00 | 0.13 | 0.05 | 50 | 1022.3 |
| 20260503180546 | 25 | 16 | 0.0 | 9.7 | 0.00 | 0.13 | 0.05 | 46 | 1022.4 |
| 20260503180054 | 25 | 22 | 0.0 | 12.9 | 0.00 | 0.13 | 0.05 | 44 | 1022.5 |
| 20260503175546 | 25 | 40 | 3.2 | 12.9 | 0.00 | 0.15 | 0.05 | 45 | 1022.7 |
| 20260503175045 | 25 | 10 | 1.6 | 8.0 | 0.00 | 0.15 | 0.05 | 44 | 1022.7 |
| 20260503174610 | 25 | 20 | 0.0 | 9.7 | 0.00 | 0.15 | 0.05 | 45 | 1022.8 |
| 20260503174047 | 24 | 22 | 1.6 | 9.7 | 0.00 | 0.15 | 0.05 | 45 | 1022.8 |
| 20260503173545 | 24 | 22 | 0.0 | 14.5 | 0.00 | 0.15 | 0.05 | 46 | 1022.9 |
| 20260503173125 | 24 | 20 | 3.2 | 14.5 | 0.00 | 0.15 | 0.05 | 43 | 1022.9 |
| 20260503172546 | 24 | 15 | 1.6 | 8.0 | 0.00 | 0.15 | 0.05 | 45 | 1023.0 |
| 20260503172044 | 24 | 29 | 0.0 | 8.0 | 0.00 | 0.15 | 0.05 | 46 | 1022.9 |
| 20260503171559 | 24 | 10 | 3.2 | 8.0 | 0.00 | 0.15 | 0.05 | 45 | 1023.0 |
| 20260503171045 | 24 | 20 | 1.6 | 9.7 | 0.00 | 0.15 | 0.05 | 49 | 1023.1 |
| 20260503170546 | 23 | 0 | 1.6 | 9.7 | 0.00 | 0.15 | 0.05 | 45 | 1023.2 |
| 20260503160104 | 22 | 0 | 1.6 | 8.0 | 0.03 | 0.18 | 0.05 | 56 | 1023.7 |
| 20260503150548 | 18 | 0 | 0.0 | 3.2 | 0.00 | 0.18 | 0.03 | 81 | 1023.7 |
| 20260503131046 | 11 | 0 | 0.0 | 0.0 | 0.00 | 0.23 | 0.03 | 96 | 1023.3 |
| 20260503130547 | 11 | 0 | 0.0 | 0.0 | 0.00 | 0.23 | 0.03 | 96 | 1023.1 |
| 20260503110545 | 10 | 0 | 0.0 | 0.0 | 0.03 | 0.25 | 0.03 | 94 | 1022.4 |
| 20260503081558 | 11 | 0 | 0.0 | 0.0 | 0.00 | 0.30 | 0.00 | 92 | 1022.1 |
| 20260503081048 | 11 | 0 | 0.0 | 0.0 | 0.00 | 0.30 | 0.00 | 92 | 1022.1 |
| 20260503080551 | 11 | 0 | 0.0 | 0.0 | 0.00 | 0.30 | 0.00 | 92 | 1022.0 |
| 20260503072547 | 11 | 0 | 0.0 | 0.0 | 0.00 | 0.33 | 0.00 | 92 | 1022.3 |
| 20260503072047 | 11 | 0 | 0.0 | 0.0 | 0.00 | 0.33 | 0.00 | 92 | 1022.4 |
| 20260503071608 | 11 | 0 | 0.0 | 0.0 | 0.00 | 0.33 | 0.00 | 92 | 1022.4 |
| 20260503071047 | 11 | 0 | 0.0 | 0.0 | 0.00 | 0.33 | 0.00 | 92 | 1022.2 |
| 20260503070549 | 11 | 0 | 0.0 | 0.0 | 0.00 | 0.33 | 0.00 | 92 | 1022.3 |
| 20260503070110 | 11 | 0 | 0.0 | 0.0 | 0.00 | 0.33 | 0.00 | 91 | 1022.5 |
| 20260503055047 | 12 | 0 | 0.0 | 0.0 | 0.00 | 0.38 | 0.00 | 90 | 1022.6 |
| 20260503054558 | 12 | 0 | 0.0 | 0.0 | 0.00 | 0.38 | 0.00 | 90 | 1022.5 |
| 20260503054047 | 12 | 0 | 0.0 | 0.0 | 0.00 | 0.38 | 0.00 | 90 | 1022.6 |
| 20260503053547 | 12 | 0 | 0.0 | 0.0 | 0.00 | 0.38 | 0.00 | 90 | 1022.5 |
| 20260503053054 | 12 | 0 | 0.0 | 0.0 | 0.00 | 0.38 | 0.00 | 90 | 1022.5 |
| 20260503052547 | 12 | 0 | 0.0 | 0.0 | 0.00 | 0.38 | 0.00 | 90 | 1022.6 |
| 20260503052047 | 12 | 0 | 0.0 | 0.0 | 0.00 | 0.38 | 0.00 | 89 | 1022.6 |
| 20260503051553 | 12 | 0 | 0.0 | 0.0 | 0.00 | 0.38 | 0.00 | 89 | 1022.7 |
| 20260503051051 | 12 | 0 | 0.0 | 0.0 | 0.00 | 0.38 | 0.00 | 88 | 1022.6 |
| 20260503050548 | 12 | 0 | 0.0 | 0.0 | 0.00 | 0.38 | 0.00 | 88 | 1022.6 |
| 20260503050101 | 12 | 0 | 0.0 | 0.0 | 0.00 | 0.38 | 0.00 | 88 | 1022.8 |
| 20260503045547 | 12 | 0 | 0.0 | 0.0 | 0.00 | 0.41 | 0.38 | 88 | 1022.7 |
| 20260503045048 | 12 | 0 | 0.0 | 0.0 | 0.00 | 0.41 | 0.38 | 88 | 1022.6 |
| 20260503044553 | 12 | 0 | 0.0 | 0.0 | 0.03 | 0.41 | 0.38 | 87 | 1022.6 |
| 20260503044046 | 12 | 0 | 0.0 | 0.0 | 0.03 | 0.41 | 0.38 | 87 | 1022.6 |
| 20260503043546 | 12 | 0 | 0.0 | 0.0 | 0.03 | 0.41 | 0.38 | 87 | 1022.7 |
| 20260503043054 | 13 | 0 | 0.0 | 0.0 | 0.03 | 0.41 | 0.38 | 86 | 1022.6 |
| 20260503042547 | 13 | 0 | 0.0 | 0.0 | 0.03 | 0.41 | 0.38 | 86 | 1022.5 |
| 20260503042048 | 13 | 0 | 0.0 | 0.0 | 0.03 | 0.41 | 0.38 | 86 | 1022.6 |
| 20260503041552 | 13 | 0 | 0.0 | 0.0 | 0.03 | 0.41 | 0.38 | 86 | 1022.4 |
| 20260503041047 | 13 | 0 | 0.0 | 0.0 | 0.03 | 0.41 | 0.38 | 86 | 1022.3 |
| 20260503040548 | 13 | 0 | 0.0 | 0.0 | 0.03 | 0.41 | 0.38 | 86 | 1022.3 |
| 20260503040055 | 13 | 0 | 0.0 | 0.0 | 0.03 | 0.41 | 0.38 | 86 | 1022.3 |
| 20260503035548 | 13 | 0 | 0.0 | 0.0 | 0.03 | 0.46 | 0.38 | 85 | 1022.4 |
| 20260503035047 | 13 | 0 | 0.0 | 0.0 | 0.03 | 0.46 | 0.38 | 84 | 1022.3 |
| 20260503034557 | 13 | 0 | 0.0 | 0.0 | 0.00 | 0.43 | 0.36 | 85 | 1022.3 |
| 20260503034046 | 13 | 0 | 0.0 | 0.0 | 0.00 | 0.43 | 0.36 | 85 | 1022.2 |
| 20260503033547 | 13 | 0 | 0.0 | 0.0 | 0.00 | 0.43 | 0.36 | 84 | 1022.1 |
| 20260503033058 | 13 | 0 | 0.0 | 0.0 | 0.00 | 0.43 | 0.36 | 83 | 1022.1 |
| 20260503032547 | 14 | 0 | 0.0 | 0.0 | 0.00 | 0.43 | 0.36 | 83 | 1022.1 |
| 20260503032047 | 14 | 0 | 0.0 | 0.0 | 0.00 | 0.43 | 0.36 | 82 | 1022.1 |
| 20260503031554 | 14 | 0 | 0.0 | 0.0 | 0.00 | 0.43 | 0.36 | 81 | 1022.0 |
| 20260503031048 | 14 | 0 | 0.0 | 0.0 | 0.00 | 0.43 | 0.36 | 82 | 1022.0 |
| 20260503030547 | 15 | 0 | 0.0 | 0.0 | 0.00 | 0.43 | 0.36 | 81 | 1021.9 |
| 20260503030051 | 15 | 0 | 0.0 | 0.0 | 0.00 | 0.43 | 0.36 | 80 | 1021.9 |
| 20260503025547 | 15 | 0 | 0.0 | 0.0 | 0.00 | 0.46 | 0.36 | 80 | 1021.9 |
| 20260503025050 | 15 | 0 | 0.0 | 0.0 | 0.00 | 0.46 | 0.36 | 80 | 1021.9 |
| 20260503024551 | 15 | 0 | 0.0 | 0.0 | 0.00 | 0.46 | 0.36 | 80 | 1021.9 |
| 20260503024047 | 15 | 0 | 0.0 | 0.0 | 0.00 | 0.46 | 0.36 | 81 | 1021.8 |
| 20260503023546 | 15 | 0 | 0.0 | 0.0 | 0.00 | 0.46 | 0.36 | 80 | 1021.6 |
| 20260503023050 | 15 | 0 | 0.0 | 0.0 | 0.00 | 0.46 | 0.36 | 78 | 1021.4 |
| 20260503022547 | 15 | 0 | 0.0 | 0.0 | 0.00 | 0.46 | 0.36 | 77 | 1021.5 |
| 20260503022050 | 16 | 0 | 0.0 | 0.0 | 0.00 | 0.46 | 0.36 | 78 | 1021.4 |
| 20260503021552 | 16 | 0 | 0.0 | 0.0 | 0.00 | 0.46 | 0.36 | 77 | 1021.1 |
| 20260503021047 | 16 | 0 | 0.0 | 1.6 | 0.00 | 0.46 | 0.36 | 77 | 1021.1 |
| 20260503020547 | 16 | 0 | 0.0 | 1.6 | 0.00 | 0.46 | 0.36 | 77 | 1021.0 |
| 20260503020052 | 16 | 0 | 0.0 | 1.6 | 0.00 | 0.46 | 0.36 | 75 | 1021.0 |
| 20260503015549 | 17 | 0 | 0.0 | 0.0 | 0.00 | 0.48 | 0.36 | 75 | 1021.0 |
| 20260503015049 | 17 | 0 | 0.0 | 0.0 | 0.00 | 0.48 | 0.36 | 75 | 1021.0 |
| 20260503014601 | 17 | 0 | 0.0 | 0.0 | 0.00 | 0.48 | 0.36 | 74 | 1021.0 |
| 20260503014046 | 18 | 0 | 0.0 | 0.0 | 0.00 | 0.48 | 0.36 | 72 | 1021.0 |
| 20260503013549 | 18 | 0 | 0.0 | 0.0 | 0.00 | 0.48 | 0.36 | 73 | 1021.1 |
| 20260503013050 | 18 | 0 | 0.0 | 0.0 | 0.00 | 0.48 | 0.36 | 73 | 1021.0 |
| 20260503012546 | 18 | 0 | 0.0 | 1.6 | 0.00 | 0.48 | 0.36 | 70 | 1021.0 |
| 20260503012046 | 18 | 0 | 0.0 | 1.6 | 0.00 | 0.48 | 0.36 | 66 | 1020.9 |
| 20260503011610 | 19 | 0 | 0.0 | 0.0 | 0.00 | 0.48 | 0.36 | 66 | 1020.6 |
| 20260503011047 | 19 | 0 | 0.0 | 0.0 | 0.00 | 0.48 | 0.36 | 68 | 1020.6 |
| 20260503010548 | 19 | 0 | 0.0 | 1.6 | 0.00 | 0.48 | 0.36 | 66 | 1020.6 |
| 20260503010050 | 19 | 0 | 0.0 | 1.6 | 0.00 | 0.48 | 0.36 | 66 | 1020.7 |
| 20260503005547 | 20 | 0 | 0.0 | 0.0 | 0.00 | 0.53 | 0.36 | 65 | 1020.6 |
| 20260503005047 | 20 | 0 | 0.0 | 1.6 | 0.00 | 0.53 | 0.36 | 60 | 1020.6 |
| 20260503004548 | 20 | 0 | 0.0 | 1.6 | 0.00 | 0.53 | 0.36 | 63 | 1020.5 |
| 20260503004047 | 20 | 0 | 0.0 | 0.0 | 0.00 | 0.53 | 0.36 | 65 | 1020.5 |
| 20260503003549 | 20 | 0 | 0.0 | 0.0 | 0.00 | 0.53 | 0.36 | 65 | 1020.5 |
| 20260503003107 | 20 | 0 | 0.0 | 0.0 | 0.00 | 0.53 | 0.36 | 64 | 1020.5 |
| 20260503002547 | 20 | 0 | 0.0 | 1.6 | 0.00 | 0.53 | 0.36 | 66 | 1020.4 |
| 20260503002047 | 20 | 0 | 0.0 | 1.6 | 0.00 | 0.53 | 0.36 | 66 | 1020.4 |
| 20260503001553 | 21 | 0 | 0.0 | 1.6 | 0.00 | 0.53 | 0.36 | 67 | 1020.4 |
| 20260503001046 | 21 | 0 | 0.0 | 0.0 | 0.00 | 0.53 | 0.36 | 62 | 1020.4 |
| 20260503000546 | 21 | 0 | 0.0 | 0.0 | 0.00 | 0.53 | 0.36 | 61 | 1020.3 |
| 20260503000050 | 21 | 0 | 0.0 | 0.0 | 0.00 | 0.53 | 0.36 | 59 | 1020.4 |
| 20260502235547 | 21 | 0 | 0.0 | 0.0 | 0.00 | 0.56 | 0.36 | 59 | 1020.3 |
| 20260502235048 | 21 | 0 | 0.0 | 1.6 | 0.03 | 0.56 | 0.36 | 61 | 1020.3 |
| 20260502234609 | 21 | 0 | 0.0 | 1.6 | 0.03 | 0.56 | 0.36 | 60 | 1020.3 |
| 20260502234047 | 21 | 0 | 0.0 | 1.6 | 0.03 | 0.56 | 0.36 | 60 | 1020.3 |
| 20260502233548 | 21 | 0 | 0.0 | 1.6 | 0.03 | 0.56 | 0.36 | 58 | 1020.3 |
| 20260502233050 | 21 | 0 | 0.0 | 1.6 | 0.03 | 0.56 | 0.36 | 60 | 1020.2 |